Flag for Japan Weather past 2 weeks in Himeji, Japan

Now
39 °F

Light rain. Partly cloudy.


Feels Like: 32 °F
Forecast: 28 / 40 °F
Wind: 12 mph from Northeast

Location: Kansai International Airport

Current Time: Jan 30, 2015 at 4:22:39 AM

Latest Report: Jan 30, 2015 at 3:30 AM


Visibility: N/A

Pressure: 30.12 "Hg

Humidity: 81%

Dew point: 34 °F

Location of HimejiLocation

Historic Weather in Himeji — Graph

°F

Himeji temperature yesterday

Maximum temperature yesterday: 43 °F (at 6:00 PM)
Minimum temperature yesterday: 36 °F (at 1:00 AM)
Average temperature yesterday: 39 °F

Past Weeks' High & Low Weather Summary

 TemperatureHumidityPressure
High55 °F (Jan 27, 12:30 PM)100% (Jan 26, 10:30 PM)30.39 "Hg (Jan 26, 10:30 PM)
Low36 °F (Jan 28, 11:30 PM)37% (Jan 19, 3:00 PM)29.65 "Hg (Jan 22, 10:30 PM)
Average45 °F65%30.10 "Hg
* Reported Jan 15 3:00 AM — Jan 30 3:00 AM, Himeji, Weather by CustomWeather, © 2014

Note: Actual official high and low records may vary slightly from our data, if they occured in-between our weather recording intervals... More about our weather records

Advertising

Himeji weather history for previous 24 hours

 ConditionsComfort  
Time TempWeatherWind HumidityBarometerVisibility
3:00 AM
Jan 30
39 °FLight rain. Passing clouds.12 mph81%30.15 "HgN/A
2:30 AM39 °FLight rain. Passing clouds.8 mph81%30.15 "HgN/A
2:00 AM41 °FLight rain. Partly cloudy.5 mph70%30.18 "HgN/A
1:30 AM41 °FLight rain. Partly cloudy.3 mph61%30.18 "HgN/A
1:00 AM41 °FPartly cloudy.5 mph61%30.18 "HgN/A
12:30 AM41 °FPartly cloudy.6 mph61%30.18 "HgN/A
12:00 AM41 °FPassing clouds.6 mph61%30.21 "HgN/A
11:30 PM
Jan 29
41 °FPassing clouds.7 mph57%30.21 "HgN/A
11:00 PM41 °FPartly cloudy.6 mph61%30.21 "HgN/A
10:30 PM41 °FPartly cloudy.7 mph57%30.24 "HgN/A
10:00 PM41 °FPartly cloudy.8 mph57%30.24 "HgN/A
9:30 PM41 °FPartly cloudy.7 mph61%30.24 "HgN/A
9:00 PM41 °FPartly cloudy.8 mph57%30.24 "HgN/A
8:30 PM43 °FPartly cloudy.9 mph53%30.24 "HgN/A
8:00 PM41 °FPartly cloudy.9 mph57%30.27 "HgN/A
7:30 PM41 °FPartly cloudy.8 mph57%30.27 "HgN/A
7:00 PM43 °FPartly cloudy.9 mph53%30.27 "HgN/A
6:30 PM43 °FPartly cloudy.9 mph53%30.27 "HgN/A
6:00 PM43 °FPartly cloudy.8 mph53%30.30 "HgN/A
5:30 PM41 °FPartly cloudy.14 mph57%30.27 "HgN/A
5:00 PM41 °FPartly sunny.10 mph57%30.27 "HgN/A
4:30 PM41 °FBroken clouds.12 mph57%30.27 "HgN/A
4:00 PM41 °FBroken clouds.12 mph57%30.27 "HgN/A
3:30 PM41 °FBroken clouds.10 mph53%30.27 "HgN/A
3:00 PM41 °FBroken clouds.9 mph53%30.27 "HgN/A
2:30 PM41 °FBroken clouds.13 mph57%30.24 "HgN/A
2:00 PM41 °FMore clouds than sun.14 mph57%30.24 "HgN/A
1:30 PM41 °FMore clouds than sun.12 mph53%30.27 "HgN/A
1:00 PM41 °FOvercast.9 mph53%30.30 "HgN/A
12:30 PM41 °FPartly sunny.8 mph53%30.33 "HgN/A
12:00 PM39 °FBroken clouds.3 mph56%30.36 "HgN/A
11:30 AM39 °FBroken clouds.5 mph56%30.36 "HgN/A
11:00 AM39 °FBroken clouds.7 mph56%30.36 "HgN/A
10:30 AM39 °FBroken clouds.3 mph61%30.39 "HgN/A
10:00 AM39 °FBroken clouds.5 mph61%30.39 "HgN/A
9:30 AM39 °FBroken clouds.3 mph61%30.39 "HgN/A
9:00 AM37 °FBroken clouds.6 mph65%30.39 "HgN/A
8:30 AM37 °FBroken clouds.6 mph65%30.39 "HgN/A
8:00 AM37 °FBroken clouds.8 mph65%30.39 "HgN/A
7:30 AM37 °FPartly sunny.9 mph65%30.39 "HgN/A
7:00 AM36 °FScattered clouds.10 mph70%30.39 "HgN/A
6:30 AM36 °FPassing clouds.9 mph70%30.39 "HgN/A
6:00 AM37 °FPassing clouds.8 mph65%30.36 "HgN/A
5:30 AM37 °FPassing clouds.7 mph70%30.36 "HgN/A
5:00 AM36 °FPassing clouds.9 mph60%30.33 "HgN/A
4:30 AM36 °FPassing clouds.13 mph60%30.33 "HgN/A
4:00 AM36 °FPassing clouds.13 mph60%30.33 "HgN/A
Weather by CustomWeather, © 2014

See weather overviewHow to use our weather pages